This is the latest recevied weather packets stored in our database for station/object FW7644. If no packets are shown the sender has not sent any weather packets the latest 10 day(s).
| Time | Temp. | Humidity | Pressure | Rain* | Wind** | Luminosity | Snow |
|---|---|---|---|---|---|---|---|
| 1777918320 | 21.11° C | 71% | 1020.1 hPa | 0 mm | - | - | - |
| 1777918018 | 21.11° C | 72% | 1020.1 hPa | 0 mm | - | - | - |
| 1777917716 | 21.67° C | 69% | 1020.1 hPa | 0 mm | - | - | - |
| 1777917414 | 20.56° C | 73% | 1020 hPa | 0 mm | - | - | - |
| 1777917112 | 21.67° C | 70% | 1020.2 hPa | 0 mm | - | - | - |
| 1777916810 | 21.11° C | 76% | 1020.2 hPa | 0 mm | - | - | - |
| 1777916509 | 19.44° C | 82% | 1020.3 hPa | 0 mm | - | - | - |
| 1777916207 | 19.44° C | 82% | 1020.5 hPa | 0 mm | - | - | - |
| 1777915905 | 18.89° C | 83% | 1020.7 hPa | 0 mm | - | - | - |
| 1777915603 | 18.33° C | 86% | 1020.8 hPa | 0 mm | - | - | - |
| 1777915301 | 17.78° C | 87% | 1020.9 hPa | 0 mm | - | - | - |
| 1777914999 | 17.78° C | 87% | 1020.9 hPa | 0 mm | - | - | - |
| 1777914698 | 17.78° C | 88% | 1021 hPa | 0 mm | - | - | - |
| 1777914396 | 17.78° C | 88% | 1021.1 hPa | 0 mm | - | - | - |
| 1777914094 | 17.78° C | 86% | 1021.2 hPa | 0 mm | - | - | - |
| 1777913792 | 18.33° C | 84% | 1021.3 hPa | 0 mm | - | - | - |
| 1777913490 | 18.33° C | 82% | 1021.5 hPa | 0 mm | - | - | - |
| 1777913189 | 18.89° C | 83% | 1021.5 hPa | 0 mm | - | - | - |
| 1777912887 | 18.33° C | 87% | 1021.8 hPa | 0 mm | - | - | - |
| 1777912585 | 17.22° C | 90% | 1021.9 hPa | 0 mm | - | - | - |
| 1777912283 | 17.22° C | 92% | 1021.8 hPa | 0 mm | - | - | - |
| 1777911982 | 16.67° C | 93% | 1022 hPa | 0 mm | - | - | - |
| 1777911680 | 16.67° C | 93% | 1022 hPa | 0 mm | - | - | - |
| 1777911378 | 16.67° C | 95% | 1022.1 hPa | 0 mm | - | - | - |
| 1777911076 | 16.11° C | 95% | 1022.2 hPa | 0 mm | - | - | - |
* Rain latest hour (hover to see other rain measurements)
** Current wind speed in m/s (hover to see current wind gust speed)